This demonstration page uses our WeatherBlox Daily Observations layout. Learn more.

40.92945, -100.16068

Hourly Observations for August 22, 2018

Temp ( °F °C ) Dew Point ( °F °C ) Humidity (%) Winds ( mph kmh ) Pressure ( in mb ) Visibility ( mi km ) Precip ( " mm )
12:15 am 00:15 Mostly Cloudy 56 13.4 53 11.9 91 91 NE 5 7 30.27 1025 10 16.0934 0 0
12:35 am 00:35 Cloudy 57 14 54 12.2 89 89 NE 3 6 30.3 1026 10 16.0934 0 0
12:55 am 00:55 Cloudy 57 14.1 54 12.2 88 88 Calm 30.3 1026 10 16.0934 0 0
1:15 am 01:15 Cloudy 56 13.6 54 12.1 91 91 Calm 30.3 1026 10 16.0934 0 0
1:35 am 01:35 Cloudy 57 14 55 12.7 92 92 Calm 30.3 1026 10 16.0934 0 0
1:55 am 01:55 Cloudy 58 14.2 55 13 93 93 Calm 30.3 1026 10 16.0934 0 0
2:15 am 02:15 Cloudy 57 14 55 13 94 94 Calm 30.3 1026 10 16.0934 0 0
2:35 am 02:35 Partly Cloudy 58 14.2 56 13.1 93 93 Calm 30.3 1026 7 11.26538 0 0
2:55 am 02:55 Clear 58 14.2 56 13.2 94 94 Calm 30.3 1026 7 11.26538 0 0
3:15 am 03:15 Clear 57 14 55 13 94 94 Calm 30.3 1026 10 16.0934 0 0
3:35 am 03:35 Clear 57 13.8 55 12.8 94 94 Calm 30.3 1026 7 11.26538 0 0
3:55 am 03:55 Clear 57 13.8 55 13 95 95 Calm 30.27 1025 7 11.26538 0 0
4:15 am 04:15 Clear with Mist and Fog 56 13.2 54 12.4 95 95 Calm 30.27 1025 5 8.0467 0 0
4:35 am 04:35 Clear with Mist and Fog 55 13 54 12.2 95 95 N 3 6 30.27 1025 4 6.43736 0 0
4:55 am 04:55 Clear with Mist and Fog 56 13.5 55 12.7 95 95 Calm 30.27 1025 5 8.0467 0 0
5:15 am 05:15 Clear with Mist and Fog 57 13.7 55 13 96 96 Calm 30.27 1025 5 8.0467 0 0
5:35 am 05:35 Clear 57 13.8 55 13 95 95 Calm 30.27 1025 7 11.26538 0 0
5:55 am 05:55 Clear 57 14.1 56 13.2 94 94 Calm 30.27 1025 7 11.26538 0 0
6:15 am 06:15 Partly Cloudy 58 14.2 56 13.3 94 94 Calm 30.27 1025 7 11.26538 0 0
6:35 am 06:35 Partly Cloudy 58 14.5 55 13 91 91 E 3 6 30.27 1025 10 16.0934 0 0
6:55 am 06:55 Partly Cloudy 58 14.5 55 12.5 88 88 SE 3 6 30.27 1025 10 16.0934 0 0
7:15 am 07:15 Sunny 58 14.5 55 12.5 88 88 ESE 6 9 30.27 1025 10 16.0934 0 0
7:35 am 07:35 Sunny 58 14.6 55 12.6 88 88 Calm 30.3 1026 10 16.0934 0 0
7:55 am 07:55 Sunny 58 14.5 55 13 91 91 Calm 30.3 1026 7 11.26538 0 0
8:15 am 08:15 Sunny 59 15.1 55 13 87 87 Calm 30.3 1026 10 16.0934 0 0
8:35 am 08:35 Sunny 60 15.5 56 13.1 86 86 Calm 30.3 1026 10 16.0934 0 0
8:55 am 08:55 Sunny 60 15.5 55 13 85 85 SE 5 7 30.3 1026 10 16.0934 0 0
9:15 am 09:15 Sunny 60 15.7 56 13.3 86 86 SSE 5 7 30.3 1026 10 16.0934 0 0
9:35 am 09:35 Partly Cloudy 61 16 56 13.1 83 83 SSE 6 9 30.33 1027 10 16.0934 0 0
9:55 am 09:55 Cloudy 62 16.6 57 14 85 85 SSE 7 11 30.27 1025 10 16.0934 0 0
10:15 am 10:15 Cloudy 63 17 57 13.9 82 82 SSE 10 17 30.27 1025 10 16.0934 0 0
10:35 am 10:35 Partly Cloudy 64 18 58 14.4 80 80 SSE 8 13 30.27 1025 10 16.0934 0 0
10:55 am 10:55 Partly Cloudy 65 18.3 57 14 76 76 SSE 7 11 30.27 1025 10 16.0934 0 0
11:15 am 11:15 Partly Cloudy 66 18.7 58 14.4 76 76 S 10 17 30.27 1025 10 16.0934 0 0
11:35 am 11:35 Partly Cloudy 66 19 58 14.5 75 75 S 10 17 30.27 1025 10 16.0934 0 0
11:55 am 11:55 Mostly Cloudy 66 19 58 14.6 76 76 SSE 9 15 30.27 1025 10 16.0934 0 0
12:15 pm 12:15 Mostly Cloudy 66 18.9 58 14.7 77 77 S 9 15 30.27 1025 10 16.0934 0 0
12:35 pm 12:35 Mostly Cloudy 66 18.7 58 14.5 77 77 S 9 15 30.27 1025 10 16.0934 0 0
12:55 pm 12:55 Partly Cloudy 66 19 58 14.4 75 75 SSE 8 13 30.24 1024 10 16.0934 0 0
1:15 pm 13:15 Cloudy 66 18.8 58 14.5 76 76 SSE 7 11 30.24 1024 10 16.0934 0 0
1:35 pm 13:35 Cloudy 65 18.6 58 14.5 77 77 SSE 8 13 30.24 1024 10 16.0934 0 0
1:55 pm 13:55 Cloudy 66 18.7 58 14.6 77 77 SSE 10 17 30.21 1023 10 16.0934 0 0
2:15 pm 14:15 Cloudy 66 19 58 14.3 74 74 SSE 10 17 30.18 1022 10 16.0934 0 0
2:35 pm 14:35 Cloudy 66 19 58 14.2 74 74 SSE 9 15 30.18 1022 10 16.0934 0 0
2:55 pm 14:55 Cloudy 66 19 58 14.5 75 75 S 9 15 30.18 1022 10 16.0934 0 0
3:15 pm 15:15 Cloudy 66 19.1 58 14.3 74 74 SSE 9 15 30.18 1022 10 16.0934 0 0
3:35 pm 15:35 Cloudy 67 19.2 58 14.7 75 75 SSE 9 15 30.15 1021 10 16.0934 0 0
3:55 pm 15:55 Cloudy 68 19.8 59 14.8 73 73 SSE 9 15 30.15 1021 10 16.0934 0 0
4:15 pm 16:15 Cloudy 67 19.7 59 15 74 74 SSE 10 17 30.15 1021 10 16.0934 0 0
4:35 pm 16:35 Cloudy 67 19.4 59 15 76 76 SSE 8 13 30.15 1021 10 16.0934 0 0
4:55 pm 16:55 Cloudy 67 19.5 59 15.1 76 76 SSE 9 15 30.12 1020 10 16.0934 0 0
5:15 pm 17:15 Cloudy 67 19.5 59 15 75 75 SSE 9 15 30.12 1020 10 16.0934 0 0
5:35 pm 17:35 Cloudy 67 19.5 59 15 75 75 SSE 12 19 30.12 1020 10 16.0934 0 0
5:55 pm 17:55 Cloudy 67 19.4 59 14.8 75 75 SSE 8 13 30.12 1020 10 16.0934 0 0
6:15 pm 18:15 Cloudy 66 19 58 14.5 75 75 SSE 7 11 30.12 1020 10 16.0934 0 0
6:35 pm 18:35 Cloudy 66 19 58 14.3 74 74 SSE 6 9 30.09 1019 10 16.0934 0 0
6:55 pm 18:55 Cloudy 66 19 58 14.5 75 75 SSE 8 13 30.09 1019 10 16.0934 0 0
7:15 pm 19:15 Cloudy 66 19 58 14.5 75 75 SSE 7 11 30.09 1019 10 16.0934 0 0
7:35 pm 19:35 Cloudy 66 18.8 58 14.7 77 77 SSE 6 9 30.06 1018 10 16.0934 0 0
7:55 pm 19:55 Cloudy 66 18.7 58 14.3 76 76 SSE 7 11 30.06 1018 10 16.0934 0 0
8:15 pm 20:15 Cloudy 65 18.6 58 14.3 76 76 SSE 5 7 30.06 1018 10 16.0934 0 0
8:35 pm 20:35 Cloudy 65 18.5 58 14.5 78 78 SSE 5 7 30.06 1018 10 16.0934 0 0
8:55 pm 20:55 Cloudy 65 18.4 58 14.3 77 77 SSE 7 11 30.06 1018 10 16.0934 0 0
9:15 pm 21:15 Cloudy 65 18.3 58 14.5 79 79 SSE 8 13 30.06 1018 10 16.0934 0 0
9:35 pm 21:35 Cloudy 65 18.3 58 14.6 79 79 SSE 7 11 30.06 1018 10 16.0934 0 0
9:55 pm 21:55 Cloudy 65 18.3 59 15 81 81 SSE 8 13 30.06 1018 10 16.0934 0 0
10:15 pm 22:15 Cloudy 65 18.2 59 15.1 82 82 S 9 15 30.09 1019 10 16.0934 0 0
10:35 pm 22:35 Cloudy 65 18.1 60 15.3 84 84 S 9 15 30.06 1018 10 16.0934 0 0
10:55 pm 22:55 Cloudy 65 18.1 60 15.5 85 85 S 12 19 30.06 1018 10 16.0934 0 0
11:15 pm 23:15 Cloudy 64 18 60 15.6 86 86 S 9 15 30.06 1018 7 11.26538 0 0
11:35 pm 23:35 Cloudy 64 18 60 15.8 87 87 S 9 15 30.06 1018 7 11.26538 0 0
11:55 pm 23:55 Cloudy 65 18.1 61 16 88 88 S 12 19 30.03 1017 7 11.26538 0 0

Powered by AerisWeather